Stations météo

réclame
Mon MeteoGroup
Cap-de-la Heve, France (7028): Température de l'air & dewpoint: 12.08.2018 02:00:00 - 18.08.2018 02:00:00 (CEST)Cap-de-la Heve, France (7028): Vitesse du vent & gusts: 12.08.2018 02:00:00 - 18.08.2018 02:00:00 (CEST)Cap-de-la Heve, France (7028): Direction du vent: 12.08.2018 02:00:00 - 18.08.2018 02:00:00 (CEST)Cap-de-la Heve, France (7028): reduced air pressure: 12.08.2018 02:00:00 - 18.08.2018 02:00:00 (CEST)Cap-de-la Heve, France (7028): visibility: 12.08.2018 02:00:00 - 18.08.2018 02:00:00 (CEST)Cap-de-la Heve, France (7028): Quantités de précipitations: 12.08.2018 02:00:00 - 18.08.2018 02:00:00 (CEST)
Date & Time tt [°C] td [°C] ff [km/h] ff [knt] fx [km/h] fx [knt] dd ppp [hPa] vv [km] rr [mm]
18.08.2018 02:00:00 16,4 12,2 9 5 31 17 WNW 1023,7 - 0,0
18.08.2018 01:00:00 16,4 12,0 9 5 28 15 WNW 1023,7 - 0,0
18.08.2018 00:00:00 16,6 11,1 14 7 35 19 WNW 1023,6 - 0,0
17.08.2018 23:00:00 16,9 11,6 14 8 29 15 NW 1023,6 20 0,0
17.08.2018 22:00:00 16,6 11,3 13 7 26 14 NW 1023,4 - 0,0
17.08.2018 21:00:00 16,8 10,2 12 7 25 13 NNW 1023,1 - 0,0
17.08.2018 20:00:00 17,6 10,7 11 6 26 14 NNW 1022,5 - 0,0
17.08.2018 19:00:00 18,2 12,0 13 7 25 13 NNW 1022,4 - 0,0
17.08.2018 18:00:00 18,7 11,5 13 7 24 13 NW 1022,2 - 0,0
17.08.2018 17:00:00 19,5 10,8 15 8 25 13 WNW 1022,3 20 0,0
17.08.2018 16:00:00 19,5 12,3 13 7 21 12 WNW 1022,6 - 0,0
17.08.2018 15:00:00 19,2 12,5 13 7 25 13 WNW 1023,0 - 0,0
17.08.2018 14:00:00 18,7 12,2 12 6 21 12 WNW 1022,8 20 0,0
17.08.2018 13:00:00 18,5 12,7 12 6 23 12 WNW 1022,5 - 0,0
17.08.2018 12:00:00 18,3 12,5 10 6 19 11 NW 1022,3 - 0,0
17.08.2018 11:00:00 17,2 10,8 10 5 18 10 NW 1021,9 20 0,0
17.08.2018 10:00:00 17,0 11,7 9 5 22 12 NNW 1021,1 - 0,0
17.08.2018 09:00:00 16,9 11,8 9 5 21 11 NNW 1020,7 - 0,0
17.08.2018 08:00:00 16,2 10,9 13 7 24 13 NNW 1020,1 25 0,0
17.08.2018 07:00:00 15,8 11,2 11 6 26 14 NNW 1019,5 - 0,0
17.08.2018 06:00:00 15,9 10,9 14 8 28 15 N 1018,8 - 0,0
17.08.2018 05:00:00 16,1 11,0 12 7 31 17 N 1018,3 20 0,0
17.08.2018 04:00:00 16,5 11,6 13 7 26 14 N 1018,1 - 0,0
17.08.2018 03:00:00 16,7 13,2 15 8 30 16 NNW 1017,9 - 0,0
17.08.2018 02:00:00 16,4 13,3 10 5 21 11 NNW 1017,9 15 0,0
17.08.2018 01:00:00 16,4 12,6 9 5 25 13 NNW 1017,9 - 0,0
17.08.2018 00:00:00 16,5 13,2 11 6 30 16 NNW 1017,6 - 0,0
16.08.2018 23:00:00 16,0 14,7 10 6 21 11 NNW 1017,2 15 0,6
16.08.2018 22:00:00 15,8 15,0 10 6 26 14 NW 1017,1 - 4,7
16.08.2018 21:00:00 16,2 15,4 12 6 22 12 NW 1016,5 - 1,2
16.08.2018 20:00:00 16,7 15,6 13 7 24 13 NNW 1015,9 - 0,2
16.08.2018 19:00:00 17,2 15,0 12 6 25 13 N 1016,1 - 0,0
16.08.2018 18:00:00 17,1 15,8 11 6 26 14 NNW 1016,1 - 0,0
16.08.2018 17:00:00 19,0 16,4 14 8 27 15 NW 1015,8 25 0,0
16.08.2018 16:00:00 20,7 15,9 13 7 23 13 WNW 1015,7 - 0,0
16.08.2018 15:00:00 21,3 15,4 11 6 35 19 WNW 1015,8 - 0,0
16.08.2018 14:00:00 21,1 16,5 11 6 27 14 WNW 1015,7 15 0,0
16.08.2018 13:00:00 20,2 16,0 16 8 23 12 W 1015,7 - 0,0
16.08.2018 12:00:00 19,7 16,0 6 3 16 9 SW 1015,6 - 0,0
16.08.2018 11:00:00 18,6 15,5 5 3 14 8 SW 1015,9 - 0,0
16.08.2018 10:00:00 19,2 15,5 10 5 20 11 S 1016,1 - 0,0
16.08.2018 09:00:00 17,7 15,0 10 6 21 12 S 1016,3 - 0,0
16.08.2018 08:00:00 17,7 15,1 13 7 20 11 S 1016,4 20 0,0
16.08.2018 07:00:00 17,4 15,4 8 4 18 10 SSW 1016,7 - 0,0
16.08.2018 06:00:00 17,7 15,5 4 2 19 11 SW 1016,9 - 0,0
16.08.2018 05:00:00 17,7 16,0 3 2 16 9 ENE 1017,3 20 0,0
16.08.2018 04:00:00 17,9 15,3 4 2 18 10 WSW 1017,7 - 0,0
16.08.2018 03:00:00 18,6 15,3 10 5 20 11 W 1018,0 - 0,0
16.08.2018 02:00:00 19,0 15,3 9 5 23 12 WSW 1018,3 20 0,0
16.08.2018 01:00:00 19,3 15,4 16 8 30 16 W 1018,8 - 0,0
16.08.2018 00:00:00 19,4 15,5 10 6 32 18 WSW 1019,1 - 0,0
15.08.2018 23:00:00 19,7 14,3 18 10 38 20 W 1019,4 20 0,0
15.08.2018 22:00:00 19,3 15,6 13 7 20 11 W 1019,5 - 0,0
15.08.2018 21:00:00 19,4 15,7 8 4 14 7 W 1019,3 - 0,0
15.08.2018 20:00:00 19,5 15,2 7 4 14 8 WSW 1019,6 20 0,0
15.08.2018 19:00:00 20,5 15,3 6 4 13 7 WSW 1019,9 - 0,0
15.08.2018 18:00:00 20,0 14,8 6 3 11 6 SW 1020,3 - 0,0
15.08.2018 17:00:00 20,2 15,2 5 3 12 6 SW 1020,6 15 0,0
15.08.2018 16:00:00 20,4 14,7 5 3 14 8 WNW 1020,8 - 0,0
15.08.2018 15:00:00 19,6 14,6 9 5 18 10 WNW 1021,4 - 0,0
15.08.2018 14:00:00 19,4 15,3 13 7 30 16 WNW 1021,3 18 0,0
15.08.2018 13:00:00 21,5 16,0 15 8 26 14 W 1021,3 - 0,0
15.08.2018 12:00:00 20,2 15,8 17 9 36 19 W 1021,5 - 0,0
15.08.2018 11:00:00 18,7 15,8 18 10 35 19 W 1021,6 20 0,0
15.08.2018 10:00:00 18,2 14,3 17 9 34 18 WSW 1021,3 - 0,0
15.08.2018 09:00:00 18,2 13,3 16 9 43 23 W 1021,2 - 0,0
15.08.2018 08:00:00 18,0 12,9 24 13 41 22 W 1020,6 - 0,0
15.08.2018 07:00:00 17,7 13,0 17 9 40 22 W 1020,5 - 0,0
15.08.2018 06:00:00 17,5 12,6 11 6 41 22 WNW 1020,5 - 0,0
15.08.2018 05:00:00 17,7 13,8 16 9 38 20 W 1020,5 20 0,0
15.08.2018 04:00:00 17,7 14,4 24 13 40 22 W 1020,8 - 0,0
15.08.2018 03:00:00 17,6 14,3 20 11 42 23 W 1020,8 - 0,0
15.08.2018 02:00:00 17,8 13,9 26 14 41 22 W 1021,0 25 0,0
15.08.2018 01:00:00 18,0 14,5 12 7 42 23 WNW 1021,0 - 0,0
15.08.2018 00:00:00 18,6 16,4 16 9 36 19 W 1020,7 - 0,0
14.08.2018 23:00:00 18,7 16,1 11 6 43 23 NW 1020,7 - 0,0
14.08.2018 22:00:00 18,8 15,8 19 10 39 21 W 1020,3 - 0,0
14.08.2018 21:00:00 19,1 15,6 10 5 27 15 WNW 1019,9 - 0,0
14.08.2018 20:00:00 19,8 15,2 13 7 24 13 WNW 1019,6 - 0,0
14.08.2018 19:00:00 20,8 14,7 11 6 21 11 WNW 1019,9 - 0,0
14.08.2018 18:00:00 20,6 15,2 8 4 23 12 W 1020,1 - 0,0
14.08.2018 17:00:00 20,9 15,0 11 6 23 12 WNW 1020,2 20 0,0
14.08.2018 16:00:00 20,8 14,9 11 6 32 17 WNW 1020,1 - 0,0
14.08.2018 15:00:00 21,4 15,0 20 11 30 16 W 1019,9 - 0,0
14.08.2018 14:00:00 20,3 15,1 11 6 30 16 WNW 1019,7 20 0,0
14.08.2018 13:00:00 20,7 15,7 14 7 29 16 W 1019,3 - 0,0
14.08.2018 12:00:00 19,0 14,5 10 5 26 14 WNW 1019,0 - 0,0
14.08.2018 11:00:00 18,6 15,5 8 5 24 13 NW 1018,5 20 0,0
14.08.2018 10:00:00 18,0 15,3 8 4 24 13 WNW 1018,1 - 0,0
14.08.2018 09:00:00 17,7 15,1 11 6 24 13 NW 1017,6 - 0,0
14.08.2018 08:00:00 17,4 15,0 11 6 23 13 NNW 1017,2 20 0,0
14.08.2018 07:00:00 17,2 15,0 11 6 29 16 NNW 1016,3 - 0,0
14.08.2018 06:00:00 17,5 14,9 10 5 28 15 NNW 1015,5 - 0,0
14.08.2018 05:00:00 17,9 15,2 15 8 32 17 NNW 1015,2 30 0,0
14.08.2018 04:00:00 18,1 15,2 17 9 40 21 NNW 1014,8 - 0,0
14.08.2018 03:00:00 18,1 15,4 20 11 34 18 NW 1014,3 - 0,0
14.08.2018 02:00:00 17,8 16,1 10 6 34 19 WNW 1014,0 - 0,0
14.08.2018 01:00:00 17,8 16,1 14 8 44 24 WNW 1013,7 - 0,0
14.08.2018 00:00:00 17,9 16,2 24 13 44 24 W 1013,2 - 0,0
13.08.2018 23:00:00 18,1 15,4 27 14 45 24 W 1012,8 30 0,0
13.08.2018 22:00:00 18,4 14,3 23 12 42 23 W 1012,5 - 0,0
13.08.2018 21:00:00 18,3 14,4 10 5 26 14 WNW 1012,2 - 0,0
13.08.2018 20:00:00 19,4 15,5 10 5 28 15 WNW 1011,3 30 0,0
13.08.2018 19:00:00 20,0 14,8 16 8 36 20 WNW 1011,2 - 0,0
13.08.2018 18:00:00 20,1 15,1 23 13 36 20 W 1011,0 - 0,0
13.08.2018 17:00:00 19,1 16,0 13 7 32 17 WNW 1011,0 30 0,2
13.08.2018 16:00:00 17,7 16,2 13 7 34 18 WNW 1011,0 - 0,0
13.08.2018 15:00:00 19,8 15,4 13 7 36 20 WNW 1010,6 - 0,0
13.08.2018 14:00:00 18,7 15,4 14 7 36 19 WNW 1010,3 30 0,0
13.08.2018 13:00:00 18,4 15,1 11 6 40 22 WNW 1009,8 - 0,0
13.08.2018 12:00:00 18,9 15,4 17 9 47 25 WNW 1009,4 - -
13.08.2018 11:00:00 17,3 15,5 22 12 50 27 WNW 1008,8 30 0,0
13.08.2018 10:00:00 16,7 15,7 19 10 51 28 WNW 1008,2 - 2,2
13.08.2018 09:00:00 16,5 15,5 21 12 59 32 SW 1007,6 - 0,0
13.08.2018 08:00:00 16,1 15,5 18 10 46 25 WSW 1007,4 6 5,9
13.08.2018 07:00:00 16,4 14,9 12 6 37 20 SW 1007,1 - 0,0
13.08.2018 06:00:00 16,3 15,3 10 5 40 22 SW 1007,2 - 0,0
13.08.2018 05:00:00 16,5 15,4 16 9 30 16 W 1007,1 8 2,4
13.08.2018 04:00:00 17,2 14,8 16 9 29 16 W 1007,5 - 0,0
13.08.2018 03:00:00 17,2 15,2 16 9 41 22 W 1007,6 - 0,3
13.08.2018 02:00:00 17,5 16,9 10 5 28 15 WSW 1007,6 10 0,8
13.08.2018 01:00:00 17,2 16,4 9 5 42 23 WSW 1008,0 - 4,4
13.08.2018 00:00:00 18,4 15,3 10 6 35 19 SE 1008,2 - 0,2
12.08.2018 23:00:00 18,4 15,6 16 9 29 16 SSW 1008,6 25 0,0
12.08.2018 22:00:00 18,6 15,7 10 6 27 15 SW 1008,6 - 0,0
12.08.2018 21:00:00 18,5 15,4 14 7 21 11 S 1008,3 - 0,0
12.08.2018 20:00:00 18,3 15,9 13 7 21 11 SSE 1008,6 20 0,0
12.08.2018 19:00:00 18,1 15,5 11 6 16 9 S 1009,6 - 0,6
12.08.2018 18:00:00 18,5 14,0 9 5 14 8 SSW 1010,3 - 2,0
12.08.2018 17:00:00 20,1 14,2 8 4 14 8 NNW 1011,0 25 0,0
12.08.2018 16:00:00 20,0 14,6 9 5 29 16 WNW 1011,4 - 0,2
12.08.2018 15:00:00 22,8 14,6 14 8 31 17 SSW 1011,8 - 0,0
12.08.2018 14:00:00 22,7 13,5 19 10 38 20 S 1011,5 30 0,0
12.08.2018 13:00:00 23,4 13,6 22 12 33 18 S 1012,2 - 0,0
12.08.2018 12:00:00 22,3 14,4 7 4 24 13 SW 1012,8 - 0,0
12.08.2018 11:00:00 21,9 13,0 19 10 35 19 S 1013,0 30 0,0
12.08.2018 10:00:00 20,6 11,8 24 13 41 22 S 1013,3 - 0,0
12.08.2018 09:00:00 19,7 12,0 25 14 40 22 S 1013,9 - 0,0
12.08.2018 08:00:00 19,2 12,5 20 11 31 17 S 1014,5 - 0,0
12.08.2018 07:00:00 18,7 12,0 14 8 31 17 SSE 1014,9 - 0,0
12.08.2018 06:00:00 18,4 12,6 16 8 26 14 S 1015,3 - 0,0
12.08.2018 05:00:00 18,5 12,7 12 7 18 10 S 1016,0 30 0,0
12.08.2018 04:00:00 18,5 12,7 15 8 27 15 S 1016,7 - 0,0
12.08.2018 03:00:00 19,5 13,4 19 11 32 17 S 1017,1 - 0,0
12.08.2018 02:00:00 19,6 13,8 18 10 29 16 S 1017,8 30 0,0

tt = Température de l'air
td = dewpoint
ff = Vitesse du vent
fx = gusts
dd = Direction du vent
ppp = reduced air pressure
vv = visibility
rr = Quantités de précipitations

stations d'obs. à proximité